Detroit Metro, MI

4:03 AM EDT on August 20, 2017 (GMT -0400)
Detroit Metro Wayne County

Weather History for KDTW - February, 2014

Change the Weather History Date:

Monday, February 10, 2014

  Actual Average Record
Temperature  
Mean Temperature 15 °F 27 °F  
Max Temperature 21 °F 34 °F 59 °F (2009)
Min Temperature 8 °F 20 °F -13 °F (1899)
Degree Days  
Heating Degree Days 50 38  
Month to date heating degree days 484 386  
Since 1 July heating degree days 4462 3906  
Cooling Degree Days 0 0  
Month to date cooling degree days 0 0  
Year to date cooling degree days 0 0  
Moisture  
Dew Point 7 °F    
Average Humidity 74    
Maximum Humidity 92    
Minimum Humidity 56    
Precipitation  
Precipitation T in 0.08 in 1.24 in (1981)
Month to date precipitation 1.47 0.67  
Year to date precipitation 4.39 2.63  
Snow  
Snow T in 0.30 in 8.10 in (1981)
Month to date snowfall 15.0 3.6  
Since 1 July snowfall 70.8 27.3  
Snow Depth 18.00 in    
Sea Level Pressure  
Sea Level Pressure 30.30 in    
Wind  
Wind Speed 8 mph (West)    
Max Wind Speed 15 mph    
Max Gust Speed 20 mph    
Visibility 9 miles    
Events Snow    
T = Trace of Precipitation, MM = Missing Value Source: NWS Daily Summary

Daily Weather History Graph

Daily Weather History Graph

Search for Another Location

Airport or City:

Trip Planner

Search our weather history database for the weather conditions in past years. The results will help you decide how hot, cold, wet, or windy it might be!

Date:

Astronomy

Feb. 10, 2014 Rise Set
Actual Time 7:36 AM EST 5:59 PM EST
Civil Twilight 7:07 AM EST 6:28 PM EST
Nautical Twilight 6:34 AM EST 7:01 PM EST
Astronomical Twilight 6:01 AM EST 7:34 PM EST
Moon 2:25 PM EST (2/10) 4:30 AM EST (2/10)
Length of Visible Light 11h 21m
Length of Day
10h 23m
Waxing Gibbous, 84% of the Moon is Illuminated
Feb 10
Waxing Gibbous
Feb 14
Full
Feb 22
Last Quarter
Mar 1
New
Mar 8
First Quarter

Hourly Weather History & Observations

Time (EST) Temp. Windchill Dew Point Humidity Pressure Visibility Wind Dir Wind Speed Gust Speed Precip Events Conditions
12:53 AM 16.0 °F 5.3 °F 9.0 °F 74% 30.20 in 10.0 mi WSW 8.1 mph - N/A   Overcast
1:53 AM 16.0 °F 7.4 °F 10.0 °F 77% 30.20 in 7.0 mi West 5.8 mph - 0.00 in Snow Light Snow
2:53 AM 15.1 °F 5.2 °F 10.0 °F 80% 30.22 in 9.0 mi West 6.9 mph - 0.00 in   Overcast
3:53 AM 15.1 °F 4.2 °F 10.0 °F 80% 30.22 in 9.0 mi West 8.1 mph - 0.00 in   Overcast
4:53 AM 12.0 °F 1.5 °F 8.1 °F 84% 30.23 in 7.0 mi WSW 6.9 mph - N/A   Mostly Cloudy
5:53 AM 10.9 °F -0.8 °F 8.1 °F 88% 30.25 in 8.0 mi West 8.1 mph - N/A   Mostly Cloudy
6:53 AM 10.0 °F -0.9 °F 6.1 °F 84% 30.27 in 7.0 mi West 6.9 mph - N/A   Mostly Cloudy
7:53 AM 10.0 °F -0.9 °F 6.1 °F 84% 30.28 in 6.0 mi SW 6.9 mph - N/A   Mostly Cloudy
8:53 AM 10.0 °F 3.6 °F 7.0 °F 87% 30.30 in 4.0 mi WNW 3.5 mph - N/A   Scattered Clouds
9:53 AM 12.9 °F 1.6 °F 7.0 °F 77% 30.32 in 6.0 mi West 8.1 mph - N/A   Haze
10:53 AM 17.1 °F 5.8 °F 7.0 °F 65% 30.32 in 8.0 mi West 9.2 mph - N/A   Scattered Clouds
11:53 AM 19.9 °F 8.6 °F 6.1 °F 55% 30.32 in 10.0 mi West 10.4 mph - N/A   Scattered Clouds
12:53 PM 21.0 °F 10.6 °F 8.1 °F 57% 30.30 in 10.0 mi West 9.2 mph - N/A   Scattered Clouds
1:53 PM 19.9 °F 7.9 °F 7.0 °F 57% 30.28 in 9.0 mi West 11.5 mph - 0.00 in   Overcast
2:53 PM 19.9 °F 7.3 °F 7.0 °F 57% 30.29 in 10.0 mi West 12.7 mph - N/A   Overcast
3:53 PM 19.9 °F 9.3 °F 6.1 °F 55% 30.30 in 10.0 mi West 9.2 mph - N/A   Overcast
4:53 PM 19.9 °F 8.6 °F 6.1 °F 55% 30.31 in 10.0 mi West 10.4 mph - N/A   Overcast
5:53 PM 19.0 °F 11.1 °F 6.1 °F 57% 30.33 in 10.0 mi West 5.8 mph - N/A   Mostly Cloudy
6:53 PM 19.0 °F 12.3 °F 7.0 °F 59% 30.34 in 10.0 mi West 4.6 mph - N/A   Overcast
7:53 PM 19.0 °F 9.0 °F 8.1 °F 62% 30.36 in 9.0 mi WNW 8.1 mph - 0.00 in Snow Light Snow
8:36 PM 17.6 °F 6.4 °F 8.6 °F 68% 30.33 in 10.0 mi West 9.2 mph - 0.00 in   Overcast
8:53 PM 17.1 °F 3.0 °F 8.1 °F 68% 30.37 in 10.0 mi WNW 13.8 mph 19.6 mph 0.00 in Snow Light Snow
9:29 PM 15.8 °F 4.2 °F 6.8 °F 68% 30.34 in 10.0 mi West 9.2 mph - 0.00 in   Overcast
9:53 PM 14.0 °F 1.2 °F 3.9 °F 64% 30.39 in 10.0 mi WNW 10.4 mph - 0.00 in   Mostly Cloudy
10:53 PM 12.9 °F -0.9 °F 1.9 °F 62% 30.40 in 10.0 mi WNW 11.5 mph - N/A   Mostly Cloudy
11:27 PM 12.2 °F 1.7 °F 1.4 °F 62% 30.37 in 10.0 mi West 6.9 mph - N/A   Mostly Cloudy
11:53 PM 12.9 °F 2.6 °F 1.9 °F 62% 30.41 in 10.0 mi WSW 6.9 mph - N/A   Mostly Cloudy